When you browse on this site, cookies collect data to enhance your experience and personalize the content and advertising you see.
Visit our Privacy Policy to learn more. By continuing to use the site, you agree to this use of cookies and data.
  • In Österreich
  • Länderverzeichnis
  • Für 7 Tage
  • Wassertemperatur
  • Satellitenkarten
  • Wetterkarte
  • News
  • Widgets
  • user-avatar
    Anmelden

    Stündliche Wetter Chaschuri

    Heute, 10 Dezember, Montag

    Zeit Temperatur Niederschläge Wind Luftdruck Luftfeuchtigkeit
    00:00 -4°C° 0 mm 2 m/S 611 mmHg 76%
    01:00 -4°C° 0 mm 2 m/S 611 mmHg 76%
    02:00 -4°C° 0 mm 2 m/S 611 mmHg 76%
    03:00 -4°C° 0 mm 2 m/S 611 mmHg 77%
    04:00 -4°C° 0 mm 2 m/S 611 mmHg 76%
    05:00 -4°C° 0 mm 2 m/S 611 mmHg 76%
    06:00 -4°C° 0 mm 2 m/S 610 mmHg 76%
    07:00 -5°C° 0 mm 3 m/S 610 mmHg 74%
    08:00 -4°C° 0 mm 3 m/S 610 mmHg 73%
    09:00 -4°C° 0 mm 3 m/S 610 mmHg 71%
    10:00 -1°C° 0 mm 3 m/S 610 mmHg 68%
    11:00 0°C° 0 mm 3 m/S 610 mmHg 65%
    12:00 +1°C° 0 mm 3 m/S 610 mmHg 62%
    13:00 +1°C° 0 mm 3 m/S 610 mmHg 63%
    14:00 +2°C° 0 mm 3 m/S 610 mmHg 63%
    15:00 +2°C° 0 mm 3 m/S 610 mmHg 64%
    16:00 +2°C° 0 mm 2 m/S 610 mmHg 68%
    17:00 +1°C° 0 mm 2 m/S 610 mmHg 72%
    18:00 -1°C° 0 mm 2 m/S 610 mmHg 76%
    19:00 -2°C° 0 mm 2 m/S 610 mmHg 76%
    20:00 -2°C° 0 mm 2 m/S 611 mmHg 77%
    21:00 -2°C° 0 mm 2 m/S 611 mmHg 77%
    22:00 -2°C° 0 mm 2 m/S 610 mmHg 77%
    23:00 -2°C° 0 mm 2 m/S 610 mmHg 77%

    Morgen, 11 Dezember, Dienstag

    Zeit Temperatur Niederschläge Wind Luftdruck Luftfeuchtigkeit
    00:00 -2°C° 0 mm 2 m/S 610 mmHg 77%
    01:00 -2°C° 0 mm 3 m/S 610 mmHg 77%
    02:00 -2°C° 0 mm 3 m/S 610 mmHg 77%
    03:00 -2°C° 0 mm 3 m/S 610 mmHg 77%
    04:00 -2°C° 0 mm 3 m/S 610 mmHg 77%
    05:00 -2°C° 0 mm 3 m/S 610 mmHg 77%
    06:00 -2°C° 0 mm 3 m/S 609 mmHg 77%
    07:00 -1°C° 0 mm 3 m/S 609 mmHg 75%
    08:00 -1°C° 0 mm 3 m/S 609 mmHg 73%
    09:00 0°C° 0 mm 3 m/S 609 mmHg 72%
    10:00 0°C° 0 mm 4 m/S 609 mmHg 69%
    11:00 +1°C° 0 mm 4 m/S 609 mmHg 66%
    12:00 +3°C° 0 mm 4 m/S 609 mmHg 63%
    13:00 +3°C° 0.1 mm 4 m/S 609 mmHg 65%
    14:00 +3°C° 0.1 mm 4 m/S 608 mmHg 67%
    15:00 +2°C° 0.1 mm 3 m/S 608 mmHg 69%
    16:00 +2°C° 0.1 mm 3 m/S 608 mmHg 72%
    17:00 +1°C° 0.1 mm 3 m/S 608 mmHg 75%
    18:00 0°C° 0.1 mm 3 m/S 608 mmHg 77%
    19:00 0°C° 0.2 mm 3 m/S 608 mmHg 78%
    20:00 0°C° 0.2 mm 3 m/S 608 mmHg 79%
    21:00 -1°C° 0.2 mm 4 m/S 608 mmHg 79%
    22:00 0°C° 1 mm 3 m/S 609 mmHg 83%
    23:00 -1°C° 1 mm 2 m/S 609 mmHg 87%

    übermorgen, 12 Dezember, Mittwoch

    Zeit Temperatur Niederschläge Wind Luftdruck Luftfeuchtigkeit
    00:00 +1°C° 1 mm 1 m/S 609 mmHg 90%
    01:00 +1°C° 1 mm 1 m/S 609 mmHg 91%
    02:00 +1°C° 1 mm 1 m/S 609 mmHg 92%
    03:00 0°C° 1 mm 1 m/S 610 mmHg 92%
    04:00 0°C° 0.5 mm 1 m/S 610 mmHg 92%
    05:00 0°C° 0.5 mm 1 m/S 610 mmHg 92%
    06:00 -1°C° 0.5 mm 0 m/S 610 mmHg 91%
    07:00 -1°C° 0.2 mm 0 m/S 610 mmHg 89%
    08:00 -1°C° 0.2 mm 0 m/S 610 mmHg 87%
    09:00 -1°C° 0.2 mm 0 m/S 610 mmHg 85%
    10:00 0°C° 0.2 mm 1 m/S 610 mmHg 83%
    11:00 +1°C° 0.2 mm 1 m/S 609 mmHg 81%
    12:00 +1°C° 0.2 mm 1 m/S 609 mmHg 79%
    13:00 -1°C° 0.4 mm 2 m/S 609 mmHg 80%
    14:00 -1°C° 0.4 mm 2 m/S 608 mmHg 82%
    15:00 -1°C° 0.4 mm 2 m/S 608 mmHg 83%
    16:00 -1°C° 0.7 mm 2 m/S 608 mmHg 84%
    17:00 -1°C° 0.7 mm 2 m/S 608 mmHg 85%
    18:00 -2°C° 0.7 mm 2 m/S 607 mmHg 86%
    19:00 -2°C° 1.1 mm 2 m/S 607 mmHg 87%
    20:00 -2°C° 1.1 mm 2 m/S 607 mmHg 87%
    21:00 -2°C° 1.1 mm 3 m/S 607 mmHg 88%
    22:00 -2°C° 1 mm 3 m/S 607 mmHg 88%
    23:00 -2°C° 1 mm 3 m/S 607 mmHg 89%

    13 Dezember, Donnerstag

    Zeit Temperatur Niederschläge Wind Luftdruck Luftfeuchtigkeit
    00:00 -2°C° 1 mm 3 m/S 607 mmHg 89%
    01:00 -2°C° 1 mm 2 m/S 607 mmHg 91%
    02:00 -3°C° 1 mm 2 m/S 607 mmHg 93%
    03:00 -3°C° 1 mm 2 m/S 608 mmHg 95%
    04:00 -3°C° 0.7 mm 2 m/S 608 mmHg 95%
    05:00 -4°C° 0.7 mm 2 m/S 608 mmHg 95%
    06:00 -2°C° 0.7 mm 1 m/S 609 mmHg 95%
    07:00 -4°C° 0.7 mm 2 m/S 609 mmHg 95%
    08:00 -4°C° 0.7 mm 2 m/S 610 mmHg 94%
    09:00 -4°C° 0.7 mm 2 m/S 611 mmHg 94%
    10:00 -4°C° 0.4 mm 2 m/S 611 mmHg 92%
    11:00 -4°C° 0.4 mm 2 m/S 611 mmHg 91%
    12:00 -4°C° 0.4 mm 2 m/S 611 mmHg 89%
    13:00 -4°C° 0.3 mm 2 m/S 611 mmHg 89%
    14:00 -2°C° 0.3 mm 1 m/S 611 mmHg 89%
    15:00 -2°C° 0.3 mm 1 m/S 611 mmHg 89%
    16:00 -3°C° 0.1 mm 1 m/S 611 mmHg 90%
    17:00 -4°C° 0.1 mm 1 m/S 612 mmHg 91%
    18:00 -6°C° 0.1 mm 1 m/S 612 mmHg 92%
    19:00 -6°C° 0.1 mm 1 m/S 612 mmHg 91%
    20:00 -7°C° 0.1 mm 1 m/S 612 mmHg 90%
    21:00 -7°C° 0.1 mm 1 m/S 612 mmHg 89%
    22:00 -7°C° 0 mm 1 m/S 612 mmHg 88%
    23:00 -8°C° 0 mm 1 m/S 612 mmHg 86%

    14 Dezember, Freitag

    Zeit Temperatur Niederschläge Wind Luftdruck Luftfeuchtigkeit
    00:00 -8°C° 0 mm 1 m/S 611 mmHg 85%
    01:00 -8°C° 0 mm 1 m/S 611 mmHg 85%
    02:00 -9°C° 0 mm 1 m/S 612 mmHg 84%
    03:00 -9°C° 0 mm 1 m/S 612 mmHg 84%
    04:00 -9°C° 0 mm 1 m/S 612 mmHg 83%
    05:00 -10°C° 0 mm 1 m/S 612 mmHg 82%
    06:00 -10°C° 0 mm 1 m/S 612 mmHg 81%
    07:00 -9°C° 0 mm 1 m/S 613 mmHg 81%
    08:00 -8°C° 0 mm 1 m/S 613 mmHg 80%
    09:00 -7°C° 0 mm 1 m/S 614 mmHg 80%
    10:00 -6°C° 0 mm 1 m/S 614 mmHg 78%
    11:00 -4°C° 0 mm 1 m/S 614 mmHg 76%
    12:00 -3°C° 0 mm 1 m/S 615 mmHg 74%
    13:00 -3°C° 0 mm 1 m/S 614 mmHg 75%
    14:00 -4°C° 0 mm 1 m/S 614 mmHg 77%
    15:00 -4°C° 0 mm 1 m/S 614 mmHg 78%
    16:00 -6°C° 0 mm 1 m/S 614 mmHg 78%
    17:00 -8°C° 0 mm 1 m/S 614 mmHg 78%
    18:00 -10°C° 0 mm 2 m/S 614 mmHg 78%
    19:00 -12°C° 0 mm 2 m/S 614 mmHg 77%
    20:00 -12°C° 0 mm 2 m/S 614 mmHg 75%
    21:00 -12°C° 0 mm 2 m/S 614 mmHg 74%
    22:00 -12°C° 0 mm 2 m/S 614 mmHg 74%
    23:00 -12°C° 0 mm 2 m/S 614 mmHg 74%

    15 Dezember, Samstag

    Zeit Temperatur Niederschläge Wind Luftdruck Luftfeuchtigkeit
    00:00 -12°C° 0 mm 2 m/S 614 mmHg 75%
    01:00 -12°C° 0 mm 2 m/S 614 mmHg 74%
    02:00 -12°C° 0 mm 2 m/S 614 mmHg 74%
    03:00 -12°C° 0 mm 2 m/S 614 mmHg 74%
    04:00 -12°C° 0 mm 2 m/S 614 mmHg 74%
    05:00 -12°C° 0 mm 2 m/S 614 mmHg 74%
    06:00 -12°C° 0 mm 2 m/S 614 mmHg 74%
    07:00 -10°C° 0 mm 2 m/S 614 mmHg 74%
    08:00 -9°C° 0 mm 2 m/S 615 mmHg 75%
    09:00 -8°C° 0 mm 2 m/S 615 mmHg 75%
    10:00 -7°C° 0 mm 2 m/S 615 mmHg 75%
    11:00 -5°C° 0 mm 2 m/S 615 mmHg 75%
    12:00 -3°C° 0 mm 2 m/S 616 mmHg 74%
    13:00 -3°C° 0 mm 2 m/S 615 mmHg 76%
    14:00 -3°C° 0 mm 2 m/S 615 mmHg 77%
    15:00 -4°C° 0 mm 2 m/S 615 mmHg 79%
    16:00 -5°C° 0 mm 2 m/S 615 mmHg 79%
    17:00 -6°C° 0 mm 2 m/S 615 mmHg 78%
    18:00 -7°C° 0 mm 2 m/S 614 mmHg 78%
    19:00 -7°C° 0 mm 2 m/S 614 mmHg 77%
    20:00 -7°C° 0 mm 2 m/S 614 mmHg 77%
    21:00 -8°C° 0 mm 2 m/S 614 mmHg 76%
    22:00 -8°C° 0 mm 2 m/S 614 mmHg 76%
    23:00 -7°C° 0 mm 2 m/S 614 mmHg 76%
    Mehr zeigen